SCP
0 0 0 0 0 0 0 0 0 0 0 0 0 0 0 0 0 0 0 0 0 0 0 0 0 0 0 0 0 0 0 0 0 0 0 0 0 0 0 0 0 0 0
0 0 0 0 0 0 0 0 0 0 0 0 0 0 0 0 0 0 0 0 0 0 0 0 0 0 0 0 0 0 0 0 0 0 0 0 0 0 0 0 0 0 0
0 0 0 0 0 0 0 0 0 0 0 0 0 0 0 0 0 0 0 0 0 0 0 0 0 0 0 0 0 0 0 0 0 0 0 0 0 0 0 0 0 0 0
0 0 0 0 0 0 0 0 0 0 0 0 0 0 0 0 0 0 0 0 0 0 0 0 0 0 0 0 0 0 0 0 0 0 0 0 0 0 0 0 0 0 0
0 0 0 0 0 0 0 0 0 0 0 0 0 0 0 0 0 0 0 0 0 0 0 0 0 0 0 0 0 0 0 0 0 0 0 0 0 0 0 0 0 0 0
0 0 0 0 0 0 0 0 0 0 0 0 0 0 0 0 0 0 0 0 0 0 0 0 0 0 0 0 0 0 0 0 0 0 0 0 0 0 0 0 0 0 0
0 0 0 0 0 0 0 0 0 0 0 0 0 0 0 0 0 0 0 0 0 0 0 0 0 0 0 0 0 0 0 0 0 0 0 0 0 0 0 0 0 0 0
0 0 0 0 0 0 0 0 0 0 0 0 0 0 0 0 0 0 0 0 0 0 0 0 0 0 0 0 0 0 0 0 0 0 0 0 0 0 0 0 0 0 0
0 0 0 0 0 0 0 0 0 0 0 0 0 0 0 0 0 0 0 0 0 0 0 0 0 0 0 0 0 0 0 0 0 0 0 0 0 0 0 0 0 0 0
0 0 0 0 0 0 0 0 0 0 0 0 0 0 0 0 0 0 0 0 0 0 0 0 0 0 0 0 0 0 0 0 0 0 0 0 0 0 0 0 0 0 0
0 0 0 0 0 0 0 0 0 0 0 0 0 0 0 0 0 0 0 0 0 0 0 0 0 0 0 0 0 0 0 0 0 0 0 0 0 0 0 0 0 0 0
0 0 0 0 0 0 0 0 0 0 0 0 0 0 0 0 0 0 0 0 0 0 0 0 0 0 0 0 0 0 0 0 0 0 0 0 0 0 0 0 0 0 0
0 0 0 0 0 0 0 0 0 0 0 0 0 0 0 0 0 0 0 0 0 0 0 0 0 0 0 0 0 0 0 0 0 0 0 0 0 0 0 0 0 0 0
0 0 0 0 0 0 0 0 0 0 0 0 0 0 0 0 0 0 0 0 0 0 0 0 0 0 0 0 0 0 0 0 0 0 0 0 0 0 0 0 0 0 0
0 0 0 0 0 0 0 0 0 0 0 0 0 0 0 0 0 0 0 0 0 0 0 0 0 0 0 0 0 0 0 0 0 0 0 0 0 0 0 0 0 0 0
0 0 0 0 0 0 0 0 0 0 0 0 0 0 0 0 0 0 0 0 0 0 0 0 0 0 0 0 0 0 0 0 0 0 0 0 0 0 0 0 0 0 0
0 0 0 0 0 0 0 0 0 0 0 0 0 0 0 0 0 0 0 0 0 0 0 0 0 0 0 0 0 0 0 0 0 0 0 0 0 0 0 0 0 0 0
0 0 0 0 0 0 0 0 0 0 0 0 0 0 0 0 0 0 0 0 0 0 0 0 0 0 0 0 0 0 0 0 0 0 0 0 0 0 0 0 0 0 0
0 0 0 0 0 0 0 0 0 0 0 0 0 0 0 0 0 0 0 0 0 0 0 0 0 0 0 0 0 0 0 0 0 0 0 0 0 0 0 0 0 0 0
0 0 0 0 0 0 0 0 0 0 0 0 0 0 0 0 0 0 0 0 0 0 0 0 0 0 0 0 0 0 0 0 0 0 0 0 0 0 0 0 0 0 0
0 0 0 0 0 0 0 0 0 0 0 0 0 0 0 0 0 0 0 0 0 0 0 0 0 0 0 0 0 0 0 0 0 0 0 0 0 0 0 0 0 0 0
0 0 0 0 0 0 0 0 0 0 0 0 0 0 0 0 0 0 0 0 0 0 0 0 0 0 0 0 0 0 0 0 0 0 0 0 0 0 0 0 0 0 0
0 0 0 0 0 0 0 0 0 0 0 0 0 0 0 0 0 0 0 0 0 0 0 0 0 0 0 0 0 0 0 0 0 0 0 0 0 0 0 0 0 0 0
0 0 0 0 0 0 0 0 0 0 0 0 0 0 0 0 0 0 0 0 0 0 0 0 0 0 0 0 0 0 0 0 0 0 0 0 0 0 0 0 0 0 0
0 0 0 0 0 0 0 0 0 0 0 0 0 0 0 0 0 0 0 0 0 0 0 0 0 0 0 0 0 0 0 0 0 0 0 0 0 0 0 0 0 0 0
0 0 0 0 0 0 0 0 0 0 0 0 0 0 0 0 0 0 0 0 0 0 0 0 0 0 0 0 0 0 0 0 0 0 0 0 0 0 0 0 0 0 0
Wind_Speed
1 1 5 7 7 8 8 9 10 10 11 11 12 11 11 11 11 11 11 12 12 12 11 12 12 12 12 12 12 12 12 12 12 12 12 11 11 11 11 11 10 8 11
2 1 5 7 7 8 8 9 9 10 11 11 11 11 11 11 11 10 11 11 11 11 11 11 11 11 11 11 12 12 11 11 11 11 10 10 10 9 10 10 10 6 10
3 2 4 6 7 8 8 9 9 9 10 10 10 11 11 10 10 10 10 10 11 11 11 11 10 11 11 11 11 11 11 10 10 9 8 5 6 8 9 10 10 9 9
3 2 3 6 7 7 7 8 9 9 9 9 9 10 10 10 10 9 9 10 10 10 10 10 10 10 10 10 10 10 10 9 8 8 5 4 5 8 8 9 9 9 9
3 2 3 7 7 7 7 8 8 8 8 9 8 8 9 9 9 8 9 9 9 9 9 9 9 9 9 9 9 9 9 8 7 6 5 4 3 7 9 9 9 9 9
3 2 3 7 6 7 7 7 7 7 7 8 8 7 7 7 8 8 8 7 8 8 8 9 9 9 8 8 9 9 8 8 6 4 5 4 3 6 8 9 9 8 8
2 1 2 5 6 6 6 6 6 7 7 6 6 6 6 6 6 6 6 7 7 7 7 8 8 8 7 7 8 9 8 8 5 4 4 4 4 6 8 8 8 8 7
3 1 1 4 5 5 5 5 6 6 6 6 5 5 6 6 5 5 5 5 6 6 7 7 7 7 6 6 7 8 8 7 5 4 4 4 6 7 7 7 7 7 7
2 2 1 1 2 3 4 5 5 5 5 5 5 5 5 5 4 4 4 4 4 5 6 6 6 6 5 5 5 6 7 7 4 3 4 3 6 7 7 7 7 7 7
3 2 1 1 1 1 1 3 4 4 4 4 4 4 4 3 2 2 2 2 3 4 5 6 5 5 5 5 5 6 6 5 4 3 2 3 6 7 7 7 7 7 7
2 1 1 1 1 1 1 2 2 3 3 2 2 2 2 1 1 1 1 2 2 3 4 5 5 4 4 4 4 5 4 2 4 2 2 4 6 7 7 7 7 7 7
1 0 1 0 0 1 1 1 1 1 1 1 1 1 1 1 1 1 1 0 1 2 3 4 4 3 3 2 2 3 2 3 3 2 2 5 6 6 7 7 7 7 7
2 1 1 0 0 1 1 1 1 1 1 1 1 1 1 1 1 1 1 1 1 0 1 1 2 2 2 2 1 1 2 2 2 2 2 4 4 4 5 6 6 7 7
2 1 1 1 1 0 1 0 0 1 1 1 1 1 1 1 1 0 0 0 0 0 1 1 1 2 2 2 2 2 2 2 1 1 2 4 4 4 4 4 5 6 6
2 2 1 1 1 1 1 0 1 1 1 0 1 1 1 1 1 0 0 0 0 1 1 2 2 2 2 2 2 2 2 2 2 2 1 3 3 3 4 4 4 5 5
3 2 1 1 2 2 1 1 1 1 1 1 0 0 1 1 1 0 0 0 0 1 1 2 2 2 2 2 2 2 2 2 2 2 1 1 1 2 2 3 3 3 4
3 2 2 2 2 2 1 1 1 1 1 1 0 0 1 1 1 1 1 1 1 1 2 3 3 3 2 2 2 2 2 2 2 2 1 1 0 1 1 1 1 2 3
3 2 2 2 2 2 1 1 1 1 1 1 0 0 1 1 1 1 1 1 2 2 2 3 3 3 2 2 2 2 2 2 2 2 2 1 1 0 0 0 1 1 2
4 3 2 2 2 2 1 1 1 1 1 1 1 1 0 1 2 2 1 1 2 2 2 3 3 3 3 2 2 2 2 2 1 2 2 1 1 1 1 1 1 0 1
3 3 3 2 2 2 2 2 2 2 1 1 1 1 1 1 2 2 2 2 2 3 3 3 3 3 3 2 3 3 3 2 2 1 1 1 1 1 1 1 1 0 1
3 3 3 3 2 2 2 1 1 1 0 1 0 1 1 1 2 2 2 2 2 2 2 3 3 4 3 3 3 2 3 3 2 1 1 1 1 1 2 1 1 1 1
4 3 3 3 2 2 2 1 1 2 1 1 1 1 1 1 2 3 3 2 2 3 3 3 3 3 2 2 2 2 1 2 2 1 1 1 1 1 1 1 1 1 0
4 4 4 3 3 2 2 2 3 2 2 2 2 1 1 1 2 2 3 3 3 3 3 2 3 3 2 1 1 2 2 1 0 1 1 1 1 1 1 1 1 0 0
5 4 4 3 3 2 3 3 3 2 2 1 0 1 1 1 2 2 3 3 3 2 2 2 2 2 3 2 1 1 1 2 2 1 1 1 1 1 1 1 1 0 0
5 4 3 3 2 2 3 3 3 2 2 1 1 2 1 1 1 2 2 3 3 2 2 2 2 2 2 2 2 2 2 1 2 2 1 0 1 1 1 1 1 1 0
4 4 3 3 3 2 3 3 4 4 3 3 2 1 0 0 1 1 2 2 2 2 2 2 2 2 2 2 2 2 2 2 2 2 2 1 0 1 1 1 0 0 0
Wind_Direction
208 199 144 134 124 119 114 112 111 114 117 119 119 120 123 126 129 130 128 132 134 135 136 138 138 137 136 135 135 135 136 137 135 135 138 140 139 138 138 136 132 129 129
154 160 143 134 129 124 118 113 111 113 117 117 119 121 122 124 126 126 126 131 134 135 137 138 139 138 139 138 138 139 139 137 135 134 135 136 136 138 140 138 135 130 134
124 134 140 135 129 127 122 117 113 112 116 118 119 122 124 126 127 127 128 132 137 139 139 139 141 141 142 141 141 140 139 137 134 133 133 130 137 141 144 143 138 135 137
129 130 146 134 131 127 123 120 115 114 113 117 120 124 126 126 126 128 132 137 140 143 144 144 143 143 143 143 143 143 142 140 140 139 133 136 144 148 148 145 140 142 141
116 128 156 140 134 129 126 123 121 118 117 117 118 122 127 128 128 127 130 136 140 143 147 148 146 145 143 144 145 146 144 145 144 140 141 139 144 156 154 151 149 147 146
109 125 152 139 132 129 129 128 127 124 122 120 118 120 128 132 130 129 127 132 141 141 143 145 143 142 143 146 152 152 149 147 142 128 137 144 151 165 161 158 156 153 149
115 119 147 138 133 135 137 138 137 132 127 123 121 126 134 138 135 135 133 135 141 146 147 148 146 142 143 149 153 154 151 151 141 133 138 147 163 170 168 163 159 157 157
128 126 144 143 135 133 139 143 141 134 130 128 124 124 133 135 133 135 139 139 144 150 151 151 148 145 142 148 155 155 157 150 146 146 147 159 174 178 176 170 167 165 168
95 92 79 90 119 126 135 144 140 136 133 130 124 121 121 119 124 131 143 143 152 153 149 149 154 152 144 143 162 162 160 152 140 150 161 165 180 184 181 173 172 175 178
74 71 53 37 51 67 97 135 133 132 127 125 127 126 123 121 125 138 146 153 159 159 158 158 162 163 154 154 160 157 150 144 135 147 149 169 180 183 181 180 177 179 181
97 60 62 64 53 69 92 112 114 126 114 105 102 117 96 53 47 59 152 175 164 163 168 166 169 168 159 155 151 144 141 135 137 146 156 180 184 186 188 192 191 188 190
172 169 77 84 81 61 96 70 51 62 65 73 70 63 58 54 51 49 29 134 193 192 181 166 159 154 143 118 132 144 138 142 145 159 181 192 194 196 200 202 200 193 191
186 184 123 158 127 96 68 75 52 53 61 63 70 71 69 55 40 24 24 0 358 57 156 147 149 135 131 129 141 145 141 144 153 167 170 181 192 201 201 198 192 188 183
169 206 181 156 146 129 99 84 88 85 89 88 74 77 91 82 62 28 23 40 67 115 130 118 114 120 126 135 150 158 156 154 154 156 180 187 193 199 194 187 186 183 180
182 207 206 183 177 178 144 184 127 126 136 109 78 82 109 122 125 137 83 44 143 129 136 124 118 116 112 114 128 143 154 150 147 145 157 177 178 187 190 184 183 190 190
184 194 196 188 179 166 162 173 171 151 143 108 97 131 121 125 131 123 102 116 98 104 126 128 126 117 107 109 103 106 119 132 134 142 147 155 150 152 156 166 188 193 194
181 182 184 181 151 148 167 180 165 158 139 142 175 142 127 125 131 109 75 74 79 94 107 113 108 100 100 98 92 93 105 117 124 127 119 101 97 118 132 180 195 191 195
171 173 196 170 126 129 149 162 140 127 132 142 136 108 119 121 122 110 88 66 77 94 105 112 104 99 94 90 79 72 85 98 104 111 107 98 88 73 85 206 236 201 194
179 177 174 147 133 135 129 114 107 103 107 112 111 104 126 125 121 114 98 77 90 94 96 113 109 113 107 95 84 68 68 80 83 95 104 104 92 62 32 11 322 229 200
172 170 163 147 137 125 101 83 78 74 63 69 84 102 107 114 119 111 102 91 96 94 90 102 108 102 108 105 88 68 59 63 70 75 91 80 73 66 52 29 4 355 50
158 155 161 149 142 121 107 107 105 97 72 59 78 100 103 110 115 109 108 101 103 108 116 118 115 106 98 104 93 68 47 55 65 56 64 71 57 57 68 60 48 37 360
171 169 166 165 158 152 148 140 132 125 113 92 46 59 79 110 125 128 122 124 126 121 116 121 123 117 115 119 117 107 61 27 26 44 69 91 55 56 69 72 68 77 29
182 185 189 185 172 162 141 108 92 74 57 48 39 38 46 110 121 120 130 128 129 133 142 146 145 140 144 124 101 131 141 171 18 20 43 62 60 61 37 61 68 64 41
196 189 187 183 173 160 141 133 136 134 136 159 141 91 53 65 98 117 125 128 129 129 139 152 134 134 141 147 109 87 132 147 144 109 19 23 35 34 11 14 24 21 17
189 181 182 173 168 160 150 150 144 139 141 124 106 89 61 45 72 107 126 128 130 132 137 130 120 122 135 143 139 130 108 88 113 144 158 354 22 9 4 3 14 8 5
176 171 168 165 175 164 154 155 158 159 150 141 142 139 130 54 62 109 139 141 146 148 153 152 139 138 148 142 142 140 143 144 152 153 164 166 145 336 354 352 317 290 278